Simultaneous Nadir Overpasses (SNOs) Predictions

Prediction of SNOs between METOP-A and TERRA Satellite Orbit:

Table of predicted SNOs for the next 14.0 days since TLE Epoch: 8/12/2017
Index Date (METOP-A) Time (METOP-A) Lat,Lon (METOP-A) SZA (METOP-A ) Date (TERRA) Time (TERRA) Lat,Lon (TERRA) SZA (TERRA ) Distance(km) Time Diff (sec)
1 08/12/2017 05:19:39 -81.35, -31.99 110.77 08/12/2017 05:20:50 -81.36, -31.93 110.72 1.34 71
2 08/12/2017 06:10:19 81.35, 135.50 69.27 08/12/2017 06:10:17 81.35, 135.48 69.26 0.71 2
3 08/15/2017 00:53:59 -81.35, 34.21 109.92 08/15/2017 00:55:06 -81.34, 34.23 109.89 0.55 67
4 08/15/2017 01:44:38 81.35,-157.94 70.16 08/15/2017 01:44:32 81.35,-158.00 70.14 1.11 6
5 08/17/2017 20:28:19 -81.35, 100.79 109.00 08/17/2017 20:29:22 -81.35, 100.79 108.97 0.05 63
6 08/17/2017 21:18:58 81.35, -91.39 71.08 08/17/2017 21:18:48 81.36, -91.46 71.06 1.22 10
7 08/20/2017 16:02:39 -81.35, 167.35 108.05 08/20/2017 16:03:38 -81.36, 167.37 108.02 0.82 59
8 08/20/2017 16:53:18 81.36, -24.85 72.02 08/20/2017 16:53:04 81.36, -24.90 72.02 1.07 14
9 08/23/2017 11:36:59 -81.35,-126.50 107.12 08/23/2017 11:37:54 -81.35,-126.41 107.09 1.58 55




NCC Satellite Simultaneous Nadir Overpasses (SNOs) Prediction Service
